Hourly Data Report for October 04, 2013

All times are specified in Local Standard Time (LST). Add 1 hour to adjust for Daylight Saving Time where and when it is observed.

ST LEONARD CS
NEW BRUNSWICK

47°09'28.050" N
67°49'55.014" W
245.00 m
810I001
71019
WIY

Download Data

Hourly Data (October 2013)
Hourly Data Report for October 4, 2013
Temp Definition
°C
Dew Point Temp Definition
°C
Rel Hum Definition
%
Wind Dir Definition
10's deg

Wind Spd Definition
km/h
Visibility Definition
km
Stn Press Definition
kPa
Hmdx Definition


Wind Chill Definition


Weather Definition


TIME
00:00 5.0 3.5 90   0   98.46     LegendNANA
01:00 6.4 4.2 86 28 7   98.47     LegendNANA
02:00 7.1 4.3 82 29 7   98.51     LegendNANA
03:00 6.4 3.3 81 28 7   98.51     LegendNANA
04:00 4.2 3.1 93 29 7   98.54     LegendNANA
05:00 4.4 3.9 97 32 6   98.59     LegendNANA
06:00 5.6 4.4 92 30 15   98.65     LegendNANA
07:00 4.9 3.9 93 30 9   98.71     LegendNANA
08:00 7.8 5.0 82 31 15   98.74     LegendNANA
09:00 9.2 4.0 70 30 22   98.77     LegendNANA
10:00 10.3 2.8 60 30 19   98.78     LegendNANA
11:00 11.7 2.4 53 29 20   98.75     LegendNANA
12:00 12.6 2.0 48 29 26   98.73     LegendNANA
13:00 13.3 1.9 46 31 24   98.70     LegendNANA
14:00 13.8 2.3 46 29 22   98.69     LegendNANA
15:00 13.8 2.3 46 30 20   98.71     LegendNANA
16:00 13.2 2.4 48 29 22   98.73     LegendNANA
17:00 11.7 3.2 56 29 13   98.74     LegendNANA
18:00 10.3 3.3 62 30 15   98.78     LegendNANA
19:00 8.1 2.6 68 32 7   98.86     LegendNANA
20:00 7.9 2.4 68 33 13   98.89     LegendNANA
21:00 6.4 2.1 74   0   98.92     LegendNANA
22:00 6.1 2.2 76 31 6   98.93     LegendNANA
23:00 5.0 1.9 80 31 7   98.93     LegendNANA

Notes on Data Quality.

Legend

  • E = Estimated
  • M = Missing
  • NA = Not Available
  • ‡ = Partner data that is not subject to review by the National Climate Archives
Date modified: